Tracking 18851 objects as of 25-Nov-2017
HD Live streaming from Space Station
objects crossing your sky now

FENGYUN 1C DEB

Track FENGYUN 1C DEB now!
10-day predictions


NORAD ID: 30984
Int'l Code: 1999-025BCA
Perigee: 664.4 km
Apogee: 884.0 km
Inclination: 98.6 °
Period: 100.2 minutes
Semi major axis: 7145 km
RCS: 0.0104 m2 (small)
Launch date: May 10, 1999
Source: People's Republic of China (PRC)
Launch site: Taiyaun Space Center, China (TSC)

Note: This is SATELLITE DEBRIS
aabbcc
Your satellite tracking list
Your tracking list is empty




NASA's NSSDC Master Catalog

Two Line Element Set (TLE):
1 30984U 99025BCA 17328.37488522  .00000517  00000-0  16545-3 0  9996
2 30984  98.5993   3.9968 0153654 202.9562 225.4490 14.37416173560839
Source of the keplerian elements: AFSPC